Regional Weather Roundup
Issued by NWS

Home | Current Version | Previous Version | Text Only | Print | Product List | Glossary On
Versions: 1 2 3 4 5 6 7 8 9 10 11 12 13 14 15 16 17 18 19 20 21 22 23 24 25 26 27 28 29 30 31 32 33 34 35 36 37 38 39 40 41 42 43 44 45 46 47 48 49 50
000
ASUS43 KDTX 292310
RWRMI
MICHIGAN HOURLY REGIONAL WEATHER ROUNDUP
NATIONAL WEATHER SERVICE DETROIT/PONTIAC MI
700 PM EDT MON SEP 29 2014

NOTE: "FAIR" INDICATES FEW OR NO CLOUDS BELOW 12,000 FEET WITH NO
SIGNIFICANT WEATHER AND/OR OBSTRUCTION TO VISIBILITY.

MIZ047>049-052>055-059>063-066>070-074>076-081>083-300000-
SOUTHEAST LOWER MICHIGAN

CITY           SKY/WX    TMP DP  RH WIND       PRES   REMARKS
ADRIAN         CLEAR     75  55  49 NW3       29.93S
ALMA           PTCLDY    73  57  58 SW6       29.89S
ANN ARBOR      CLEAR     72  54  53 W5        29.91F
BAD AXE        PTCLDY    71  60  68 SW5       29.87F
CARO           CLEAR     70  60  70 SW3       29.87F
DETROIT CITY   CLEAR     77  50  38 CALM      29.92F
DETROIT        PTCLDY    72  59  63 S6        29.91S
FLINT          PTCLDY    74  58  57 SW5       29.89F
GROSSE ILE     CLEAR     68  63  83 SW6       29.90F
HILLSDALE      CLEAR     74  56  53 CALM      29.94S
HOWELL         PTCLDY    72  55  55 W5        29.91F

CITY           SKY/WX    TMP DP  RH WIND       PRES   REMARKS
JACKSON        CLEAR     72  57  59 W3        29.92F
LAMBERTVILLE   CLEAR     72  57  60 CALM      29.92S
LANSING        CLEAR     74  57  55 W6        29.91F
LAPEER         FAIR      72  56  58 SW5       29.90S
MASON          CLEAR     73  58  59 W3        29.91F
MONROE         CLEAR     70  59  68 SE3       29.90S
MT. CLEMENS    PTCLDY    66  61  81 S5        29.88S
PONTIAC        CLEAR     73  55  53 W6        29.90F
PORT HOPE        N/A     67  63  87 CALM      29.84F
PORT HURON     CLEAR     68  61  77 CALM      29.90S
TRI CITIES     PTCLDY    75  59  57 SW8       29.87F
TROY           CLEAR     76  51  40 W3        29.92S
SAGINAW HB     CLEAR     73  57  56 SW6       29.86F
$$
MIZ043>046-050>051-056>058-064>065-071>073-077>080-300000-
SOUTHWEST LOWER MICHIGAN

CITY           SKY/WX    TMP DP  RH WIND       PRES   REMARKS
BATTLE CREEK   CLEAR     73  58  59 W5        29.93F
BIG RAPIDS     LGT RAIN  58  58 100 NW10G16   29.94R
COLDWATER      MOCLDY    75  58  56 W5        29.93S
FREMONT        CLOUDY    57  52  84 N12       29.95S
HOLLAND        MOCLDY    62  58  86 NW10      29.95R FOG
GRAND RAPIDS   PTCLDY    73  59  61 W9        29.91F
IONIA          FAIR      73  59  61 W7        29.90S
KALAMAZOO      CLEAR     74  56  53 W7        29.93F
LUDINGTON      CLOUDY    51  49  95 N14G22    30.01R
MARSHALL       CLEAR     72  58  62 W5        29.92F
MOUNT PLEASANT LGT RAIN  60  58  91 NW7       29.91R
MUSKEGON       CLOUDY    62  55  77 N13       29.96R
SOUTH HAVEN    PTCLDY    72  58  61 CALM      29.92F
$$
MIZ016>042-300000-
NORTHERN LOWER MICHIGAN

CITY           SKY/WX    TMP DP  RH WIND       PRES   REMARKS
ALPENA         RAIN      56  55  97 NW9       29.91R FOG
BEAVER ISLAND  CLOUDY    49  46  91 N9G16     30.01R FOG
BELLAIRE       LGT RAIN  51  49  93 CALM      29.98F
CADILLAC       RAIN      50  49  97 NW10G16   29.96S
CHARLEVOIX     DRIZZLE   52  51  97 N15G22    30.01S
FRANKFORT      CLOUDY    51  46  83 N13G22    30.01S
GAYLORD        CLOUDY    50  49  96 NW8       29.95S
GRAYLING       CLOUDY    54  53  96 NW9G18    29.96S
HARBOR SPRINGS DRIZZLE   52  50  92 N5        29.97R
HOUGHTON LAKE  LGT RAIN  52  50  93 NW9G17    29.94F
OSCODA         RAIN      61  60  97 N8        29.88R
PELLSTON       LGT RAIN  49  48  97 N12       29.98R FOG
TRAVERSE CITY  DRIZZLE   52  48  86 NW12      29.98F
$$
MIZ007>008-015-300000-
EASTERN UPPER MICHIGAN

CITY           SKY/WX    TMP DP  RH WIND       PRES   REMARKS
MACKINAC ISLAN CLOUDY    47  47  98 NE12      29.98R
NEWBERRY       CLOUDY    44  43  97 N9G18     30.02R
S. S. MARIE    CLOUDY    46  42  86 NE7       30.00R
MUNISING         N/A     47  42  83 N16       30.09S
$$
MIZ004>006-011>014-085-300000-
CENTRAL UPPER MICHIGAN

CITY           SKY/WX    TMP DP  RH WIND       PRES   REMARKS
MANISTIQUE     CLOUDY    45  41  86 N15G22    30.04S
SAWYER-GWINN   LGT RAIN  41  39  93 N15G23    30.10S
$$
MIZ001>003-009>011-084-300000-
WESTERN UPPER MICHIGAN

CITY           SKY/WX    TMP DP  RH WIND       PRES   REMARKS
IRON MOUNTAIN  CLOUDY    45  36  70 N15G24    30.09S
HOUGHTON       CLOUDY    40  35  83 NE8G16    30.18S WCI  34
COPPER HARBOR    N/A     44  39  82 E18       30.19R
$$

ABBREVIATIONS USED IN REMARKS
   TC - TEMPERATURE IN CELSIUS
  WCI - WIND CHILL INDEX
   HX - HEAT INDEX
  VSB - VISIBILITY




USA.gov is the U.S. government's official web portal to all federal, state and local government web resources and services.